Location: Amsterdam
(30.7274°N, 84.4357°W)
Time: 07:55:57
(UTC+00:00)

Explorer 11/Cluster Stage 4 - Pass Details

Date: 16 February 2026
Orbit: 463 x 1175 km, 28.8° (Epoch: 12 March)

Event Time Altitude Azimuth Distance (km) Brightness Sun altitude
Rises 00:40:09 0° 267° (W) 2,608 11.1 -16.6°
Reaches altitude 10° 00:42:35 10° 252° (WSW) 1,799 9.7 -17.1°
Maximum altitude 00:45:51 23° 199° (SSW) 1,289 7.9 -17.8°
Enters shadow 00:49:18 11° 150° (SSE) 1,995 8.4 -18.5°
Drops below altitude 10° 00:49:35 10° 148° (SSE) 2,083 - -18.6°
Sets 00:52:38 0° 134° (SE) 3,144 - -19.3°
